CAPE
0 0 0 0 0 0 0 0 0 0 0 0 0 0 0 0 1 314 733 532 638 658 895 1337 1755 1720 1986 2384 2246 2010 1969 1616 1458 805 418 293 466 253 134 14 4 3 3 1 4 5 5 4 1
0 0 0 0 0 0 0 0 0 0 0 0 0 0 0 14 565 429 622 532 651 637 698 819 1027 1755 1826 1970 2307 2097 1642 1542 1311 928 457 329 180 78 8 6 6 8 5 9 8 5 3 0 0
0 0 0 0 0 0 0 0 0 0 0 0 0 0 0 0 115 249 617 587 620 674 623 730 1192 1706 1757 1841 2112 1890 1801 1378 729 399 212 56 11 12 8 10 14 8 13 11 10 4 0 0 0
0 0 0 0 0 0 0 0 0 0 0 0 0 0 0 0 6 104 15 263 624 667 582 951 1315 1458 1781 1726 1640 1771 1390 872 338 69 51 7 9 13 14 15 13 17 20 12 8 2 14 2 20
0 0 0 0 0 0 0 0 0 0 0 0 0 0 0 0 0 0 16 9 646 606 654 862 1516 1530 1958 1679 1751 1557 1230 839 125 49 8 6 8 14 16 18 13 17 13 12 10 11 0 0 19
0 0 0 0 0 0 0 0 0 0 0 0 0 0 0 0 0 0 30 73 70 468 544 925 1149 1431 1780 1745 1823 1491 1230 795 224 98 11 7 10 13 13 16 14 18 12 11 25 11 6 12 6
0 0 0 0 0 0 0 0 0 0 0 0 0 0 0 0 0 0 0 90 136 234 845 1016 832 948 1505 1264 1511 1345 1134 687 483 169 91 27 18 13 13 18 18 11 18 18 38 14 3 3 6
0 0 0 0 0 0 0 0 0 0 0 0 0 0 0 0 0 0 0 0 117 51 558 1081 845 822 1169 1043 1111 942 809 504 349 137 40 8 6 10 21 28 29 7 28 30 33 21 0 0 6
0 0 0 0 0 0 0 0 0 0 0 0 0 0 0 0 0 0 0 0 38 17 409 1006 980 962 1039 1019 927 783 482 183 111 28 5 0 0 0 5 7 6 5 27 14 12 16 0 2 5
0 0 0 0 0 0 0 0 0 0 0 0 0 0 0 0 0 0 0 0 0 11 71 351 944 902 966 1014 801 615 393 154 100 2 0 0 0 0 0 4 8 7 13 15 15 5 0 0 0
0 0 0 0 0 0 0 0 0 0 0 0 0 0 0 0 0 0 0 0 0 0 18 294 686 799 781 920 728 588 443 173 273 3 0 0 0 0 0 4 9 11 18 5 4 0 0 0 0
0 0 0 0 0 0 0 0 0 0 0 0 0 0 0 0 0 0 0 0 0 0 34 171 360 795 652 765 738 553 412 178 325 2 0 0 0 0 0 2 2 3 6 8 0 0 0 0 0
0 0 0 0 0 0 0 0 0 0 0 0 0 0 0 0 0 0 0 0 0 0 29 248 408 517 664 667 622 526 408 126 332 1 0 0 0 0 0 0 0 0 1 0 0 0 0 0 0
0 0 0 0 0 0 0 0 0 0 0 0 0 0 0 0 0 0 0 0 0 0 6 273 386 370 491 519 485 435 587 133 259 1 0 0 0 0 0 0 0 0 0 0 0 0 0 0 0
0 0 0 0 0 0 0 0 0 0 0 0 0 0 0 0 0 0 0 0 0 0 0 72 344 341 312 385 324 406 350 338 327 0 0 0 0 0 0 0 0 0 0 0 0 0 0 0 0
0 0 0 0 0 0 0 0 0 0 0 0 0 0 0 0 0 0 0 0 0 0 3 85 418 480 431 409 106 127 363 262 698 54 0 0 0 0 0 0 0 0 0 0 0 0 0 0 0
0 0 0 0 0 0 0 0 0 0 0 0 0 0 0 0 0 0 0 0 0 14 38 393 706 570 384 171 60 60 18 167 291 170 0 0 0 0 0 0 0 0 0 0 0 0 0 0 0
0 0 0 0 0 0 0 0 0 0 0 0 0 0 0 0 0 0 0 0 0 177 536 718 692 462 292 220 66 0 3 28 95 156 3 0 0 0 0 0 0 0 0 0 0 0 0 0 0
0 0 0 0 0 0 0 0 0 0 0 0 0 0 0 0 0 0 0 0 468 726 793 671 601 449 246 133 57 5 0 9 15 94 1 0 0 0 0 0 0 0 0 0 0 0 0 0 0
0 0 0 0 0 0 0 0 0 0 0 0 0 0 0 0 0 0 31 341 473 539 558 459 486 465 291 139 77 0 0 10 0 0 1 0 0 0 0 0 0 0 0 0 0 0 0 0 0
0 0 0 0 0 0 0 0 0 0 0 0 0 0 0 0 0 8 0 331 348 387 467 466 342 343 135 17 2 1 0 0 0 6 0 0 0 0 0 0 0 0 0 0 0 0 0 0 0
0 0 0 0 0 0 0 0 0 0 0 0 0 0 0 0 0 5 8 365 475 510 450 309 300 242 69 6 0 0 0 0 0 0 0 0 0 0 0 0 0 0 0 0 0 0 0 0 0
0 0 0 0 0 0 0 0 0 0 0 0 0 0 0 0 0 0 6 2 487 363 408 287 194 304 139 18 3 0 0 0 0 0 0 0 0 0 0 0 0 0 0 0 0 0 0 0 0
0 0 0 0 0 0 0 0 0 0 0 0 0 0 0 0 0 0 0 0 467 569 495 359 145 335 113 31 3 2 0 0 0 0 0 0 0 0 0 0 0 0 0 0 0 0 0 0 0
0 0 0 0 0 0 2 0 1 0 6 0 0 0 0 0 0 0 0 0 34 392 511 355 223 137 154 78 63 11 11 4 1 3 3 0 0 0 0 0 0 0 0 0 0 0 0 0 0
6 30 0 0 0 0 28 0 8 0 3 11 3 0 0 0 0 0 0 0 0 21 275 330 317 210 111 60 77 41 57 32 4 8 0 1 0 0 0 0 0 0 0 0 0 0 0 0 0
0 33 18 2 14 0 0 7 12 0 1 1 4 0 1 0 0 0 0 0 0 0 0 210 262 217 176 78 86 69 29 38 19 5 6 2 4 0 0 0 0 0 0 0 0 0 0 0 0
12 1 12 9 0 0 0 0 8 14 18 1 0 1 1 0 0 0 0 0 0 0 3 91 216 183 177 132 65 64 44 38 1 0 1 1 10 6 0 0 0 0 0 0 0 0 0 0 0
1 6 10 2 0 0 0 0 3 6 14 3 3 1 2 0 0 0 0 0 0 0 9 60 163 194 101 173 140 20 31 11 19 0 0 9 12 2 4 0 0 0 0 0 0 0 0 0 0
0 0 0 0 0 0 0 0 26 14 1 0 0 0 0 0 0 0 0 0 0 0 0 40 43 43 50 35 64 84 70 11 41 6 34 23 23 9 0 0 0 0 0 0 0 0 0 0 0
CIN
0 0 0 0 0 0 0 0 0 0 0 0 0 0 0 0 -25 -51 -9 -48 -176 -128 -141 -65 -10 -4 0 0 0 0 0 0 0 -23 -108 -168 -109 -188 -265 -244 0 0 0 0 0 0 0 0 0
0 0 0 0 0 0 0 0 0 0 0 0 0 0 0 -78 -52 -32 -33 -27 -188 -141 -179 -125 -88 -3 0 -1 0 0 0 0 0 -12 -91 -145 -239 -194 0 0 0 0 0 0 0 0 0 0 0
0 0 0 0 0 0 0 0 0 0 0 0 0 0 0 0 -126 -48 -19 -22 -99 -125 -169 -139 -53 -4 -3 -2 -2 -3 -1 0 -23 -98 -179 -358 0 0 0 0 0 0 0 0 0 0 0 0 0
0 0 0 0 0 0 0 0 0 0 0 0 0 0 0 0 -18 -122 -228 -48 -23 -115 -158 -83 -27 -9 -3 -3 -4 -3 -1 -2 -105 -289 -331 0 0 0 0 0 0 0 0 0 0 0 0 0 0
0 0 0 0 0 0 0 0 0 0 0 0 0 0 0 0 0 0 -252 -293 -17 -32 -95 -113 -10 -3 -1 -3 -5 -3 -1 -1 -181 -292 -25 0 0 0 0 0 0 0 0 0 0 0 0 0 -4
0 0 0 0 0 0 0 0 0 0 0 0 0 0 0 0 0 0 -225 -201 -191 -30 -65 -59 -70 -15 -2 -3 -2 -2 0 0 -101 -195 -20 0 0 0 0 0 0 0 0 0 -1 0 0 -1 -13
0 0 0 0 0 0 0 0 0 0 0 0 0 0 0 0 0 0 0 -185 -160 -141 -40 -27 -65 -66 -14 -9 -6 -5 0 -1 -9 -108 -188 -332 0 0 0 0 0 0 0 0 -3 0 0 -9 -22
0 0 0 0 0 0 0 0 0 0 0 0 0 0 0 0 0 0 0 0 -163 -180 -59 -26 -40 -78 -47 -7 -8 -7 -3 -10 -13 -107 -233 -6 -6 -1 0 0 0 0 0 0 0 0 0 0 -16
0 0 0 0 0 0 0 0 0 0 0 0 0 0 0 0 0 0 0 0 -138 -169 -85 -15 -26 -52 -59 -23 -7 -8 -10 -54 -95 -267 -262 0 0 0 -1 -2 0 0 0 0 0 0 0 -7 -25
0 0 0 0 0 0 0 0 0 0 0 0 0 0 0 0 0 0 0 0 0 -150 -118 -54 -19 -51 -36 -23 -5 -5 -13 -40 -87 -174 0 0 0 0 0 -1 0 -1 -1 0 0 0 0 0 0
0 0 0 0 0 0 0 0 0 0 0 0 0 0 0 0 0 0 0 0 0 0 -126 -93 -24 -44 -38 -17 -2 0 -5 -35 -12 -54 0 0 0 0 0 -2 0 -4 -3 0 -1 0 0 0 0
0 0 0 0 0 0 0 0 0 0 0 0 0 0 0 0 0 0 0 0 0 0 -132 -114 -44 -33 -39 -23 -1 0 -5 -46 -5 -51 0 0 0 0 0 -1 0 -3 -1 -11 0 0 0 0 0
0 0 0 0 0 0 0 0 0 0 0 0 0 0 0 0 0 0 0 0 0 0 -130 -127 -65 -29 -18 -10 0 0 -1 -68 -7 -46 0 0 0 0 0 0 0 0 -1 0 0 0 0 0 0
0 0 0 0 0 0 0 0 0 0 0 0 0 0 0 0 0 0 0 0 0 0 -215 -77 -90 -49 -21 -4 -1 0 0 -47 -4 -46 0 0 0 0 0 0 0 0 0 0 0 0 0 0 0
0 0 0 0 0 0 0 0 0 0 0 0 0 0 0 0 0 0 0 0 0 0 0 -240 -86 -73 -51 -9 -2 0 -8 0 0 0 0 0 0 0 0 0 0 0 0 0 0 0 0 0 0
0 0 0 0 0 0 0 0 0 0 0 0 0 0 0 0 0 0 0 0 0 0 -257 -268 -95 -67 -39 -2 -102 0 0 -1 0 -14 0 0 0 0 0 0 0 0 0 0 0 0 0 0 0
0 0 0 0 0 0 0 0 0 0 0 0 0 0 0 0 0 0 0 0 0 -150 -227 -130 -59 -43 -30 -6 -1 0 -8 0 0 0 0 0 0 0 0 0 0 0 0 0 0 0 0 0 0
0 0 0 0 0 0 0 0 0 0 0 0 0 0 0 0 0 0 0 0 0 -136 -153 -81 -42 -33 -20 -1 -1 0 0 0 -3 -1 0 0 0 0 0 0 0 0 0 0 0 0 0 0 0
0 0 0 0 0 0 0 0 0 0 0 0 0 0 0 0 0 0 0 0 -165 -51 -67 -34 -58 -50 -21 -14 -11 -6 0 0 -26 0 -1 0 0 0 0 0 0 0 0 0 0 0 0 0 0
0 0 0 0 0 0 0 0 0 0 0 0 0 0 0 0 0 0 -124 -143 -99 -98 -112 -51 -64 -43 -13 -1 -1 0 0 0 0 0 0 0 0 0 0 0 0 0 0 0 0 0 0 0 0
0 0 0 0 0 0 0 0 0 0 0 0 0 0 0 0 0 -105 0 -100 -105 -69 -76 -63 -84 -48 -26 -2 -2 -1 -1 0 0 0 0 0 0 0 0 0 0 0 0 0 0 0 0 0 0
0 0 0 0 0 0 0 0 0 0 0 0 0 0 0 0 0 -44 -120 -123 -60 -51 -30 -111 -80 -44 -14 -10 0 0 0 0 0 0 0 0 0 0 0 0 0 0 0 0 0 0 0 0 0
0 0 0 0 0 0 0 0 0 0 0 0 0 0 0 0 0 0 -80 -180 -66 -49 -30 -41 -105 -35 -21 0 -2 0 0 0 0 0 0 0 0 0 0 0 0 0 0 0 0 0 0 0 0
0 0 0 0 0 0 0 0 0 0 0 0 0 0 0 0 0 0 0 0 -58 -24 -11 -27 -64 -9 -27 -5 -37 -12 0 0 0 0 0 0 0 0 0 0 0 0 0 0 0 0 0 0 0
0 0 0 0 0 0 -6 -2 -24 0 -4 0 0 0 0 0 0 0 0 0 -16 -48 -13 -28 -14 -27 -13 -23 -46 -82 -11 0 -24 -67 -5 0 0 0 0 0 0 0 0 0 0 0 0 0 0
-19 -24 0 0 0 0 -2 0 -3 0 -2 -1 -7 0 0 0 0 0 0 0 0 -75 -46 -18 0 -21 -15 -50 -64 -48 -89 -82 0 0 0 0 0 0 0 0 0 0 0 0 0 0 0 0 0
-11 -16 -21 -1 -7 0 0 -1 -4 -1 -5 -2 -2 0 -7 0 0 0 0 0 0 0 0 -41 -6 -12 0 -31 -46 -76 -92 -74 -53 -6 0 0 0 0 0 0 0 0 0 0 0 0 0 0 0
-41 -19 -4 -7 0 0 0 0 -1 -6 -6 -4 -2 -3 -10 0 0 0 0 0 0 0 -22 -37 -18 -11 0 0 -30 -35 -95 -93 -45 0 0 0 -17 -8 0 0 0 0 0 0 0 0 0 0 0
-9 -2 -6 -4 0 0 0 0 -4 -10 -2 -1 -4 -3 -8 0 0 0 0 0 0 0 -57 -53 -29 -8 0 -4 -7 0 0 -4 -9 -4 0 -7 -7 0 -2 0 0 0 0 0 0 0 0 0 0
0 0 0 0 0 0 0 0 -6 -4 -1 0 0 0 0 0 0 0 0 0 0 0 0 -22 -47 -60 -36 -6 -3 0 -3 -11 -1 0 0 -6 -1 -5 0 0 0 0 0 0 0 0 0 0 0
Wind_Speed
nan nan nan nan nan nan nan nan nan nan nan nan nan nan nan nan nan 39 30 41 43 38 31 31 29 25 23 23 24 23 22 24 26 29 27 22 22 20 19 nan nan nan nan nan nan nan nan nan nan
nan nan nan nan nan nan nan nan nan nan nan nan nan nan nan nan 34 33 37 36 40 39 36 34 31 28 24 24 26 27 26 27 27 30 28 24 22 nan nan nan nan nan nan nan nan nan nan nan nan
nan nan nan nan nan nan nan nan nan nan nan nan nan nan nan nan 34 37 26 34 45 41 41 36 35 32 25 28 26 33 30 27 30 31 25 nan nan nan nan nan nan nan nan nan nan nan nan nan nan
nan nan nan nan nan nan nan nan nan nan nan nan nan nan nan nan nan 38 nan 32 41 41 42 40 37 33 30 30 31 33 34 33 28 nan nan nan nan nan nan nan nan nan nan nan nan nan nan nan nan
nan nan nan nan nan nan nan nan nan nan nan nan nan nan nan nan nan nan nan nan 35 37 44 45 39 35 34 31 35 35 36 34 27 nan nan nan nan nan nan nan nan nan nan nan nan nan nan nan nan
nan nan nan nan nan nan nan nan nan nan nan nan nan nan nan nan nan nan nan nan nan 43 37 45 44 38 36 34 37 38 39 35 29 nan nan nan nan nan nan nan nan nan nan nan nan nan nan nan nan
nan nan nan nan nan nan nan nan nan nan nan nan nan nan nan nan nan nan nan nan 43 49 39 43 47 44 41 37 39 38 40 36 31 30 nan nan nan nan nan nan nan nan nan nan nan nan nan nan nan
nan nan nan nan nan nan nan nan nan nan nan nan nan nan nan nan nan nan nan nan 44 nan 48 41 47 51 47 44 42 40 39 40 33 32 nan nan nan nan nan nan nan nan nan nan nan nan nan nan nan
nan nan nan nan nan nan nan nan nan nan nan nan nan nan nan nan nan nan nan nan nan nan 47 43 45 52 54 50 46 43 42 43 38 nan nan nan nan nan nan nan nan nan nan nan nan nan nan nan nan
nan nan nan nan nan nan nan nan nan nan nan nan nan nan nan nan nan nan nan nan nan nan nan 44 43 51 56 55 52 47 43 42 41 nan nan nan nan nan nan nan nan nan nan nan nan nan nan nan nan
nan nan nan nan nan nan nan nan nan nan nan nan nan nan nan nan nan nan nan nan nan nan nan 52 43 50 57 58 57 54 48 45 45 nan nan nan nan nan nan nan nan nan nan nan nan nan nan nan nan
nan nan nan nan nan nan nan nan nan nan nan nan nan nan nan nan nan nan nan nan nan nan nan 46 48 51 57 61 59 56 52 47 44 nan nan nan nan nan nan nan nan nan nan nan nan nan nan nan nan
nan nan nan nan nan nan nan nan nan nan nan nan nan nan nan nan nan nan nan nan nan nan nan 43 54 51 59 61 58 56 51 48 44 nan nan nan nan nan nan nan nan nan nan nan nan nan nan nan nan
nan nan nan nan nan nan nan nan nan nan nan nan nan nan nan nan nan nan nan nan nan nan nan 41 53 54 57 58 54 55 52 49 48 nan nan nan nan nan nan nan nan nan nan nan nan nan nan nan nan
nan nan nan nan nan nan nan nan nan nan nan nan nan nan nan nan nan nan nan nan nan nan nan nan 47 52 53 55 45 54 53 51 50 nan nan nan nan nan nan nan nan nan nan nan nan nan nan nan nan
nan nan nan nan nan nan nan nan nan nan nan nan nan nan nan nan nan nan nan nan nan nan nan nan 42 51 61 66 56 72 52 56 53 nan nan nan nan nan nan nan nan nan nan nan nan nan nan nan nan
nan nan nan nan nan nan nan nan nan nan nan nan nan nan nan nan nan nan nan nan nan nan nan 38 45 61 70 66 nan nan nan 62 56 58 nan nan nan nan nan nan nan nan nan nan nan nan nan nan nan
nan nan nan nan nan nan nan nan nan nan nan nan nan nan nan nan nan nan nan nan nan 28 34 43 46 58 72 79 nan nan nan nan nan 64 nan nan nan nan nan nan nan nan nan nan nan nan nan nan nan
nan nan nan nan nan nan nan nan nan nan nan nan nan nan nan nan nan nan nan nan 28 30 38 39 42 48 70 82 nan nan nan nan nan nan nan nan nan nan nan nan nan nan nan nan nan nan nan nan nan
nan nan nan nan nan nan nan nan nan nan nan nan nan nan nan nan nan nan nan 25 25 26 33 39 38 44 66 85 nan nan nan nan nan nan nan nan nan nan nan nan nan nan nan nan nan nan nan nan nan
nan nan nan nan nan nan nan nan nan nan nan nan nan nan nan nan nan nan nan 17 27 28 30 37 37 42 56 nan nan nan nan nan nan nan nan nan nan nan nan nan nan nan nan nan nan nan nan nan nan
nan nan nan nan nan nan nan nan nan nan nan nan nan nan nan nan nan nan nan 15 19 26 28 33 36 37 nan nan nan nan nan nan nan nan nan nan nan nan nan nan nan nan nan nan nan nan nan nan nan
nan nan nan nan nan nan nan nan nan nan nan nan nan nan nan nan nan nan nan nan 16 21 23 26 28 28 37 nan nan nan nan nan nan nan nan nan nan nan nan nan nan nan nan nan nan nan nan nan nan
nan nan nan nan nan nan nan nan nan nan nan nan nan nan nan nan nan nan nan nan 15 19 20 18 20 21 30 nan nan nan nan nan nan nan nan nan nan nan nan nan nan nan nan nan nan nan nan nan nan
nan nan nan nan nan nan nan nan nan nan nan nan nan nan nan nan nan nan nan nan nan 10 16 15 11 14 25 nan nan nan nan nan nan nan nan nan nan nan nan nan nan nan nan nan nan nan nan nan nan
nan nan nan nan nan nan nan nan nan nan nan nan nan nan nan nan nan nan nan nan nan nan 7 13 12 7 14 nan nan nan nan nan nan nan nan nan nan nan nan nan nan nan nan nan nan nan nan nan nan
nan nan nan nan nan nan nan nan nan nan nan nan nan nan nan nan nan nan nan nan nan nan nan 8 11 8 11 nan nan nan nan nan nan nan nan nan nan nan nan nan nan nan nan nan nan nan nan nan nan
nan nan nan nan nan nan nan nan nan nan nan nan nan nan nan nan nan nan nan nan nan nan nan nan 7 6 9 11 nan nan nan nan nan nan nan nan nan nan nan nan nan nan nan nan nan nan nan nan nan
nan nan nan nan nan nan nan nan nan nan nan nan nan nan nan nan nan nan nan nan nan nan nan nan 5 5 5 16 19 nan nan nan nan nan nan nan nan nan nan nan nan nan nan nan nan nan nan nan nan
nan nan nan nan nan nan nan nan nan nan nan nan nan nan nan nan nan nan nan nan nan nan nan nan nan nan nan nan nan nan nan nan nan nan nan nan nan nan nan nan nan nan nan nan nan nan nan nan nan
Wind_Direction
nan nan nan nan nan nan nan nan nan nan nan nan nan nan nan nan nan 261 259 253 264 268 259 263 267 268 265 276 271 269 267 262 253 246 244 242 245 247 251 nan nan nan nan nan nan nan nan nan nan
nan nan nan nan nan nan nan nan nan nan nan nan nan nan nan nan 267 268 256 248 272 269 266 256 268 267 263 265 272 267 269 267 255 245 244 244 244 nan nan nan nan nan nan nan nan nan nan nan nan
nan nan nan nan nan nan nan nan nan nan nan nan nan nan nan nan 268 274 267 253 273 269 263 258 266 261 260 258 265 270 267 261 250 247 245 nan nan nan nan nan nan nan nan nan nan nan nan nan nan
nan nan nan nan nan nan nan nan nan nan nan nan nan nan nan nan nan 269 nan 256 264 267 270 262 261 257 259 256 259 260 262 258 255 nan nan nan nan nan nan nan nan nan nan nan nan nan nan nan nan
nan nan nan nan nan nan nan nan nan nan nan nan nan nan nan nan nan nan nan nan 253 260 260 266 261 257 255 258 258 256 261 258 258 nan nan nan nan nan nan nan nan nan nan nan nan nan nan nan nan
nan nan nan nan nan nan nan nan nan nan nan nan nan nan nan nan nan nan nan nan nan 253 251 256 266 254 249 252 259 258 256 259 255 nan nan nan nan nan nan nan nan nan nan nan nan nan nan nan nan
nan nan nan nan nan nan nan nan nan nan nan nan nan nan nan nan nan nan nan nan 258 254 245 248 252 256 248 245 258 258 254 257 252 248 nan nan nan nan nan nan nan nan nan nan nan nan nan nan nan
nan nan nan nan nan nan nan nan nan nan nan nan nan nan nan nan nan nan nan nan 260 nan 254 240 242 246 246 238 250 254 252 255 250 246 nan nan nan nan nan nan nan nan nan nan nan nan nan nan nan
nan nan nan nan nan nan nan nan nan nan nan nan nan nan nan nan nan nan nan nan nan nan 261 247 238 238 242 240 239 247 248 253 243 nan nan nan nan nan nan nan nan nan nan nan nan nan nan nan nan
nan nan nan nan nan nan nan nan nan nan nan nan nan nan nan nan nan nan nan nan nan nan nan 254 237 232 236 237 237 237 238 240 235 nan nan nan nan nan nan nan nan nan nan nan nan nan nan nan nan
nan nan nan nan nan nan nan nan nan nan nan nan nan nan nan nan nan nan nan nan nan nan nan 257 236 229 233 234 232 229 230 233 233 nan nan nan nan nan nan nan nan nan nan nan nan nan nan nan nan
nan nan nan nan nan nan nan nan nan nan nan nan nan nan nan nan nan nan nan nan nan nan nan 250 238 226 229 229 231 231 229 232 234 nan nan nan nan nan nan nan nan nan nan nan nan nan nan nan nan
nan nan nan nan nan nan nan nan nan nan nan nan nan nan nan nan nan nan nan nan nan nan nan 249 237 218 227 226 227 229 230 231 237 nan nan nan nan nan nan nan nan nan nan nan nan nan nan nan nan
nan nan nan nan nan nan nan nan nan nan nan nan nan nan nan nan nan nan nan nan nan nan nan 249 232 214 222 220 226 228 231 231 233 nan nan nan nan nan nan nan nan nan nan nan nan nan nan nan nan
nan nan nan nan nan nan nan nan nan nan nan nan nan nan nan nan nan nan nan nan nan nan nan nan 232 216 212 218 236 223 230 230 231 nan nan nan nan nan nan nan nan nan nan nan nan nan nan nan nan
nan nan nan nan nan nan nan nan nan nan nan nan nan nan nan nan nan nan nan nan nan nan nan nan 234 217 211 208 212 213 221 232 230 nan nan nan nan nan nan nan nan nan nan nan nan nan nan nan nan
nan nan nan nan nan nan nan nan nan nan nan nan nan nan nan nan nan nan nan nan nan nan nan 237 240 221 216 204 nan nan nan 219 230 231 nan nan nan nan nan nan nan nan nan nan nan nan nan nan nan
nan nan nan nan nan nan nan nan nan nan nan nan nan nan nan nan nan nan nan nan nan 248 244 238 236 229 218 202 nan nan nan nan nan 228 nan nan nan nan nan nan nan nan nan nan nan nan nan nan nan
nan nan nan nan nan nan nan nan nan nan nan nan nan nan nan nan nan nan nan nan 275 240 246 243 242 235 217 209 nan nan nan nan nan nan nan nan nan nan nan nan nan nan nan nan nan nan nan nan nan
nan nan nan nan nan nan nan nan nan nan nan nan nan nan nan nan nan nan nan 292 271 261 246 241 241 239 222 222 nan nan nan nan nan nan nan nan nan nan nan nan nan nan nan nan nan nan nan nan nan
nan nan nan nan nan nan nan nan nan nan nan nan nan nan nan nan nan nan nan 298 286 277 267 258 247 242 235 nan nan nan nan nan nan nan nan nan nan nan nan nan nan nan nan nan nan nan nan nan nan
nan nan nan nan nan nan nan nan nan nan nan nan nan nan nan nan nan nan nan 292 294 290 277 262 251 241 nan nan nan nan nan nan nan nan nan nan nan nan nan nan nan nan nan nan nan nan nan nan nan
nan nan nan nan nan nan nan nan nan nan nan nan nan nan nan nan nan nan nan nan 289 293 293 260 242 239 238 nan nan nan nan nan nan nan nan nan nan nan nan nan nan nan nan nan nan nan nan nan nan
nan nan nan nan nan nan nan nan nan nan nan nan nan nan nan nan nan nan nan nan 297 276 279 278 254 231 236 nan nan nan nan nan nan nan nan nan nan nan nan nan nan nan nan nan nan nan nan nan nan
nan nan nan nan nan nan nan nan nan nan nan nan nan nan nan nan nan nan nan nan nan 304 278 267 246 215 232 nan nan nan nan nan nan nan nan nan nan nan nan nan nan nan nan nan nan nan nan nan nan
nan nan nan nan nan nan nan nan nan nan nan nan nan nan nan nan nan nan nan nan nan nan 334 290 260 207 204 nan nan nan nan nan nan nan nan nan nan nan nan nan nan nan nan nan nan nan nan nan nan
nan nan nan nan nan nan nan nan nan nan nan nan nan nan nan nan nan nan nan nan nan nan nan 346 291 238 193 nan nan nan nan nan nan nan nan nan nan nan nan nan nan nan nan nan nan nan nan nan nan
nan nan nan nan nan nan nan nan nan nan nan nan nan nan nan nan nan nan nan nan nan nan nan nan 326 279 238 207 nan nan nan nan nan nan nan nan nan nan nan nan nan nan nan nan nan nan nan nan nan
nan nan nan nan nan nan nan nan nan nan nan nan nan nan nan nan nan nan nan nan nan nan nan nan 308 310 235 227 214 nan nan nan nan nan nan nan nan nan nan nan nan nan nan nan nan nan nan nan nan
nan nan nan nan nan nan nan nan nan nan nan nan nan nan nan nan nan nan nan nan nan nan nan nan nan nan nan nan nan nan nan nan nan nan nan nan nan nan nan nan nan nan nan nan nan nan nan nan nan